Satellite: NANOSALD
Catalog number: 37361
Epoch time:      11080.41235428
Element set:    0097
Inclination:      071.9730 deg
RA of node:       232.2252 deg
Eccentricity:    0.0024394
Arg of perigee:   042.6308 deg
Mean anomaly:     317.6744 deg
Mean motion:   14.82560370 rev/day
Decay rate:     5.6672e-04 rev/day^2
Epoch rev:           00903
Checksum:              278

Satellite: FAST2
Catalog number: 37380
Epoch time:      11090.48759118
Element set:    0127
Inclination:      071.9735 deg
RA of node:       210.5936 deg
Eccentricity:    0.0016073
Arg of perigee:   060.8422 deg
Mean anomaly:     299.4318 deg
Mean motion:   14.76302050 rev/day
Decay rate:       3.10e-06 rev/day^2
Epoch rev:           01939
Checksum:              283

/EX
SB KEPS @ AMSAT  $ORB11090.W
Orbital Elements  11090.WEATHER

HR AMSAT ORBITAL ELEMENTS FOR WEATHER SATELLITES
FROM WA5QGD FORT WORTH,TX March 31, 2011
Send Subscribe/unsubscribe to KEPS at http://www.amsat.org/mailman/listinfo/kep
BID: ORB11090.W
TO ALL RADIO AMATEURS BT

Satellite: NOAA-10
Catalog number: 16969
Epoch time:      11090.19475867
Element set:     447
Inclination:      098.6264 deg
RA of node:       121.0166 deg
Eccentricity:    0.0013150
Arg of perigee:   092.9048 deg
Mean anomaly:     267.3637 deg
Mean motion:   14.27450115 rev/day
Decay rate:        3.1e-07 rev/day^2
Epoch rev:           27652
Checksum:              300

Satellite: NOAA-11
Catalog number: 19531
Epoch time:      11090.27226277
Element set:     454
Inclination:      098.7504 deg
RA of node:       179.2108 deg
Eccentricity:    0.0012014
Arg of perigee:   053.1370 deg
Mean anomaly:     307.0883 deg
Mean motion:   14.14908626 rev/day
Decay rate:       -1.3e-07 rev/day^2
Epoch rev:           16173
Checksum:              272

Satellite: NOAA-12
Catalog number: 21263
Epoch time:      11090.60759744
Element set:     948
Inclination:      098.7565 deg
RA of node:       108.5769 deg
Eccentricity:    0.0013312
Arg of perigee:   054.6057 deg
Mean anomaly:     305.6363 deg
Mean motion:   14.25694683 rev/day
Decay rate:        9.3e-07 rev/day^2
Epoch rev:            3335
Checksum:              315

Satellite: MET-3/5
Catalog number: 21655
Epoch time:      11089.81030567
Element set:      73
Inclination:      082.5534 deg
RA of node:       106.1552 deg
Eccentricity:    0.0013505
Arg of perigee:   359.2770 deg
Mean anomaly:     000.8293 deg
Mean motion:   13.17025365 rev/day
Decay rate:        5.1e-07 rev/day^2
Epoch rev:           94340
Checksum:              272

Satellite: MET-2/21
Catalog number: 22782
Epoch time:      11090.37539017
Element set:      56
Inclination:      082.5500 deg
RA of node:       024.6081 deg
Eccentricity:    0.0021533
Arg of perigee:   320.8622 deg
Mean anomaly:     039.0996 deg
Mean motion:   13.83656853 rev/day
Decay rate:       1.45e-06 rev/day^2
Epoch rev:           88779
Checksum:              304

Satellite: OKEAN-4
Catalog number: 23317
Epoch time:      11089.96612584
Element set:    0550
Inclination:      082.5366 deg
RA of node:       086.1740 deg
Eccentricity:    0.0022994
Arg of perigee:   021.1101 deg
Mean anomaly:     339.1069 deg
Mean motion:   14.82979885 rev/day
Decay rate:       9.12e-06 rev/day^2
Epoch rev:           88895
Checksum:              330

Satellite: NOAA-14
Catalog number: 23455
Epoch time:      11090.47180299
Element set:     433
Inclination:      098.8542 deg
RA of node:       173.8758 deg
Eccentricity:    0.0009823
Arg of perigee:   136.1160 deg
Mean anomaly:     224.0795 deg
Mean motion:   14.13811233 rev/day
Decay rate:        5.4e-07 rev/day^2
Epoch rev:           83809
Checksum:              304

Satellite: NOAA-15
Catalog number: 25338
Epoch time:      11090.22124853
Element set:     761
Inclination:      098.6502 deg
RA of node:       077.4553 deg
Eccentricity:    0.0010088
Arg of perigee:   323.9475 deg
Mean anomaly:     036.1066 deg
Mean motion:   14.24894641 rev/day
Decay rate:       1.35e-06 rev/day^2
Epoch rev:           66962
Checksum:              303

Satellite: RESURS
Catalog number: 25394
Epoch time:      11089.98551496
Element set:    0777
Inclination:      098.3011 deg
RA of node:       097.3169 deg
Eccentricity:    0.0002309
Arg of perigee:   088.4464 deg
Mean anomaly:     271.6982 deg
Mean motion:   14.24226708 rev/day
Decay rate:       -7.0e-08 rev/day^2
Epoch rev:           66117
Checksum:              326

Satellite: FENGYUN1
Catalog number: 25730
Epoch time:      11089.89423326
Element set:     290
Inclination:      098.8138 deg
RA of node:       052.8271 deg
Eccentricity:    0.0022692
Arg of perigee:   168.3317 deg
Mean anomaly:     191.8383 deg
Mean motion:   14.08551697 rev/day
Decay rate:       4.93e-06 rev/day^2
Epoch rev:           61204
Checksum:              314

Satellite: OKEAN-0
Catalog number: 25860
Epoch time:      11090.69439724
Element set:     269
Inclination:      097.8754 deg
RA of node:       059.3110 deg
Eccentricity:    0.0000651
Arg of perigee:   073.2524 deg
Mean anomaly:     286.8756 deg
Mean motion:   14.73736141 rev/day
Decay rate:       3.19e-06 rev/day^2
Epoch rev:           62924
Checksum:              312

